TimeAKDT,TemperatureF,Dew PointF,Humidity,Sea Level PressureIn,VisibilityMPH,Wind Direction,Wind SpeedMPH,Gust SpeedMPH,PrecipitationIn,Events,Conditions,WindDirDegrees,DateUTC
12:53 AM,48.9,46.9,93,29.70,10.0,NNE,10.4,-,0.01,,Overcast,30,2013-10-06 08:53:00
1:53 AM,48.9,46.9,93,29.67,10.0,NE,12.7,20.7,0.01,,Overcast,40,2013-10-06 09:53:00
2:53 AM,48.9,46.0,90,29.64,10.0,NNE,16.1,23.0,0.01,,Overcast,30,2013-10-06 10:53:00
3:53 AM,48.0,46.9,96,29.60,10.0,NNE,16.1,21.9,0.03,,Overcast,30,2013-10-06 11:53:00
4:53 AM,48.0,46.9,96,29.59,7.0,NNE,12.7,21.9,0.01,,Overcast,30,2013-10-06 12:53:00
5:53 AM,48.9,46.9,93,29.57,9.0,NNE,15.0,21.9,0.02,,Overcast,30,2013-10-06 13:53:00
6:53 AM,48.9,46.9,93,29.57,9.0,NE,4.6,-,0.01,,Overcast,40,2013-10-06 14:53:00
8:19 AM,48.2,46.4,93,29.55,10.0,NNE,9.2,16.1,N/A,,Overcast,30,2013-10-06 16:19:00
8:53 AM,50.0,48.0,93,29.53,10.0,NNE,12.7,17.3,N/A,,Overcast,20,2013-10-06 16:53:00
9:01 AM,50.0,48.2,94,29.53,10.0,NNE,13.8,-,N/A,,Overcast,30,2013-10-06 17:01:00
9:18 AM,50.0,48.2,94,29.53,10.0,NE,9.2,-,N/A,,Overcast,40,2013-10-06 17:18:00
9:37 AM,50.0,48.2,94,29.53,3.0,NE,9.2,-,0.02,,Overcast,40,2013-10-06 17:37:00
9:53 AM,50.0,48.0,93,29.53,5.0,NE,10.4,18.4,0.03,,Overcast,40,2013-10-06 17:53:00
10:07 AM,50.0,48.2,94,29.53,2.0,NNE,11.5,16.1,0.01,,Overcast,30,2013-10-06 18:07:00
10:17 AM,50.0,48.2,94,29.53,6.0,NE,9.2,-,0.01,,Overcast,40,2013-10-06 18:17:00
10:36 AM,50.0,48.2,94,29.52,7.0,NE,6.9,16.1,0.01,,Overcast,50,2013-10-06 18:36:00
10:53 AM,50.0,48.9,96,29.52,9.0,NE,6.9,-,0.02,,Overcast,40,2013-10-06 18:53:00
11:00 AM,50.0,48.2,94,29.52,3.0,NE,5.8,-,N/A,,Overcast,40,2013-10-06 19:00:00
11:08 AM,50.0,48.2,94,29.51,2.5,NNE,5.8,-,0.01,,Overcast,30,2013-10-06 19:08:00
11:10 AM,50.0,48.2,94,29.51,3.0,Variable,5.8,-,0.01,,Overcast,0,2013-10-06 19:10:00
11:30 AM,51.8,48.2,88,29.51,10.0,NE,5.8,-,0.01,,Overcast,40,2013-10-06 19:30:00
11:53 AM,51.1,50.0,96,29.51,10.0,NNE,9.2,-,0.01,,Overcast,30,2013-10-06 19:53:00
12:01 PM,51.8,50.0,94,29.51,10.0,NNE,10.4,-,N/A,,Overcast,20,2013-10-06 20:01:00
12:27 PM,51.8,50.0,94,29.50,8.0,NNE,8.1,-,N/A,,Overcast,30,2013-10-06 20:27:00
12:53 PM,52.0,51.1,97,29.50,8.0,NE,5.8,-,N/A,,Overcast,40,2013-10-06 20:53:00
1:07 PM,51.8,51.8,100,29.49,4.0,NE,6.9,-,0.01,,Overcast,40,2013-10-06 21:07:00
1:53 PM,53.1,51.1,93,29.49,5.0,NE,4.6,-,0.02,,Overcast,40,2013-10-06 21:53:00
2:31 PM,53.6,51.8,94,29.47,4.0,NE,5.8,-,0.01,,Overcast,40,2013-10-06 22:31:00
2:41 PM,53.6,51.8,94,29.47,3.0,NE,4.6,-,0.01,,Overcast,40,2013-10-06 22:41:00
2:53 PM,53.1,52.0,96,29.47,2.5,NNE,5.8,-,0.02,,Overcast,30,2013-10-06 22:53:00
3:00 PM,53.6,51.8,94,29.46,6.0,NE,5.8,-,N/A,,Overcast,40,2013-10-06 23:00:00
3:10 PM,53.6,51.8,94,29.46,8.0,Variable,3.5,-,N/A,,Overcast,0,2013-10-06 23:10:00
3:41 PM,53.6,51.8,94,29.45,10.0,NNE,4.6,-,0.01,,Overcast,30,2013-10-06 23:41:00
3:53 PM,53.1,52.0,96,29.46,9.0,NE,4.6,-,0.02,Rain,Light Rain,50,2013-10-06 23:53:00
4:08 PM,53.6,51.8,94,29.45,9.0,NNE,5.8,-,0.00,Rain,Light Rain,30,2013-10-07 00:08:00
4:39 PM,53.6,51.8,94,29.45,4.0,NE,4.6,-,0.06,Rain,Heavy Rain,40,2013-10-07 00:39:00
4:53 PM,53.1,52.0,96,29.45,6.0,NE,4.6,-,0.08,Rain,Rain,40,2013-10-07 00:53:00
5:53 PM,53.1,52.0,96,29.44,9.0,NNE,4.6,-,0.08,Rain,Light Rain,20,2013-10-07 01:53:00
6:53 PM,53.1,52.0,96,29.44,8.0,NNE,3.5,-,0.03,,Overcast,30,2013-10-07 02:53:00
7:53 PM,53.1,52.0,96,29.44,10.0,NE,4.6,-,0.09,Rain,Light Rain,40,2013-10-07 03:53:00
8:53 PM,52.0,51.1,97,29.45,10.0,NE,4.6,-,0.05,Rain,Light Rain,40,2013-10-07 04:53:00
9:53 PM,52.0,51.1,97,29.46,10.0,NE,3.5,-,0.04,,Overcast,50,2013-10-07 05:53:00
10:27 PM,51.8,51.8,100,29.46,10.0,NNE,3.5,-,0.01,Rain,Light Rain,30,2013-10-07 06:27:00
10:37 PM,51.8,51.8,100,29.46,8.0,NE,3.5,-,0.02,Rain,Light Rain,40,2013-10-07 06:37:00
10:49 PM,51.8,51.8,100,29.47,9.0,NNE,3.5,-,0.02,Rain,Light Rain,30,2013-10-07 06:49:00
10:53 PM,52.0,51.1,97,29.47,10.0,Calm,Calm,-,0.03,Rain,Light Rain,0,2013-10-07 06:53:00
11:06 PM,51.8,51.8,100,29.47,10.0,Calm,Calm,-,0.00,Rain,Light Rain,0,2013-10-07 07:06:00
11:24 PM,51.8,51.8,100,29.48,10.0,WNW,4.6,-,0.01,Rain,Light Rain,300,2013-10-07 07:24:00
11:29 PM,51.8,51.8,100,29.48,10.0,NW,5.8,-,0.01,Rain,Light Rain,310,2013-10-07 07:29:00
11:53 PM,51.1,50.0,96,29.49,10.0,NW,5.8,-,0.01,Rain,Light Rain,310,2013-10-07 07:53:00